Year,Month,Day,Hour,Minute,Value (Times are PST for temperature in C)
2017,06,26,00,00,20.20
2017,06,26,00,01,20.20
2017,06,26,00,02,20.20
2017,06,26,00,03,20.30
2017,06,26,00,04,20.30
2017,06,26,00,05,20.40
2017,06,26,00,06,20.40
2017,06,26,00,07,20.40
2017,06,26,00,08,20.40
2017,06,26,00,09,20.40
2017,06,26,00,10,20.30
2017,06,26,00,11,20.30
2017,06,26,00,12,20.30
2017,06,26,00,13,20.30
2017,06,26,00,14,20.30
2017,06,26,00,15,20.30
2017,06,26,00,16,20.40
2017,06,26,00,17,20.40
2017,06,26,00,18,20.40
2017,06,26,00,19,20.40
2017,06,26,00,20,20.40
2017,06,26,00,21,20.50
2017,06,26,00,22,20.50
2017,06,26,00,23,20.50
2017,06,26,00,24,20.60
2017,06,26,00,25,20.60
2017,06,26,00,26,20.60
2017,06,26,00,27,20.60
2017,06,26,00,28,20.60
2017,06,26,00,29,20.60
2017,06,26,00,30,20.60
2017,06,26,00,31,20.50
2017,06,26,00,32,20.50
2017,06,26,00,33,20.40
2017,06,26,00,34,20.30
2017,06,26,00,35,20.30
2017,06,26,00,36,20.30
2017,06,26,00,37,20.20
2017,06,26,00,38,20.20
2017,06,26,00,39,20.20
2017,06,26,00,40,20.20
2017,06,26,00,41,20.20
2017,06,26,00,42,20.20
2017,06,26,00,43,20.10
2017,06,26,00,44,20.10
2017,06,26,00,45,20.10
2017,06,26,00,46,20.00
2017,06,26,00,47,20.00
2017,06,26,00,48,20.00
2017,06,26,00,49,20.00
2017,06,26,00,50,20.00
2017,06,26,00,51,20.00
2017,06,26,00,52,20.10
2017,06,26,00,53,20.10
2017,06,26,00,54,20.00
2017,06,26,00,55,20.00
2017,06,26,00,56,20.00
2017,06,26,00,57,20.00
2017,06,26,00,58,19.90
2017,06,26,00,59,19.90
2017,06,26,01,00,19.80
2017,06,26,01,01,19.80
2017,06,26,01,02,19.70
2017,06,26,01,03,19.70
2017,06,26,01,04,19.70
2017,06,26,01,05,19.70
2017,06,26,01,06,19.80
2017,06,26,01,07,19.80
2017,06,26,01,08,19.90
2017,06,26,01,09,19.90
2017,06,26,01,10,20.00
2017,06,26,01,11,20.10
2017,06,26,01,12,20.10
2017,06,26,01,13,20.20
2017,06,26,01,14,20.20
2017,06,26,01,15,20.30
2017,06,26,01,16,20.40
2017,06,26,01,17,20.50
2017,06,26,01,18,20.50
2017,06,26,01,19,20.50
2017,06,26,01,20,20.50
2017,06,26,01,21,20.50
2017,06,26,01,22,20.40
2017,06,26,01,23,20.50
2017,06,26,01,24,20.40
2017,06,26,01,25,20.50
2017,06,26,01,26,20.50
2017,06,26,01,27,20.50
2017,06,26,01,28,20.50
2017,06,26,01,29,20.50
2017,06,26,01,30,20.50
2017,06,26,01,31,20.50
2017,06,26,01,32,20.50
2017,06,26,01,33,20.50
2017,06,26,01,34,20.60
2017,06,26,01,35,20.60
2017,06,26,01,36,20.70
2017,06,26,01,37,20.70
2017,06,26,01,38,20.70
2017,06,26,01,39,20.70
2017,06,26,01,40,20.70
2017,06,26,01,41,20.70
2017,06,26,01,42,20.70
2017,06,26,01,43,20.70
2017,06,26,01,44,20.70
2017,06,26,01,45,20.80
2017,06,26,01,46,20.80
2017,06,26,01,47,20.80
2017,06,26,01,48,20.80
2017,06,26,01,49,20.80
2017,06,26,01,50,20.80
2017,06,26,01,51,20.80
2017,06,26,01,52,20.80
2017,06,26,01,53,20.80
2017,06,26,01,54,20.80
2017,06,26,01,55,20.80
2017,06,26,01,56,20.80
2017,06,26,01,57,20.80
2017,06,26,01,58,20.80
2017,06,26,01,59,20.80
2017,06,26,02,00,20.80
2017,06,26,02,01,20.80
2017,06,26,02,02,20.80
2017,06,26,02,03,20.80
2017,06,26,02,04,20.70
2017,06,26,02,05,20.60
2017,06,26,02,06,20.50
2017,06,26,02,07,20.40
2017,06,26,02,08,20.40
2017,06,26,02,09,20.30
2017,06,26,02,10,20.30
2017,06,26,02,11,20.20
2017,06,26,02,12,20.20
2017,06,26,02,13,20.20
2017,06,26,02,14,20.20
2017,06,26,02,15,20.20
2017,06,26,02,16,20.20
2017,06,26,02,17,20.20
2017,06,26,02,18,20.20
2017,06,26,02,19,20.20
2017,06,26,02,20,20.20
2017,06,26,02,21,20.10
2017,06,26,02,22,20.10
2017,06,26,02,23,20.10
2017,06,26,02,24,20.10
2017,06,26,02,25,20.10
2017,06,26,02,26,20.10
2017,06,26,02,27,20.10
2017,06,26,02,28,20.00
2017,06,26,02,29,20.00
2017,06,26,02,30,19.90
2017,06,26,02,31,19.80
2017,06,26,02,32,19.70
2017,06,26,02,33,19.70
2017,06,26,02,34,19.70
2017,06,26,02,35,19.70
2017,06,26,02,36,19.70
2017,06,26,02,37,19.70
2017,06,26,02,38,19.70
2017,06,26,02,39,19.70
2017,06,26,02,40,19.70
2017,06,26,02,41,19.60
2017,06,26,02,42,19.60
2017,06,26,02,43,19.60
2017,06,26,02,44,19.60
2017,06,26,02,45,19.60
2017,06,26,02,46,19.60
2017,06,26,02,47,19.60
2017,06,26,02,48,19.50
2017,06,26,02,49,19.50
2017,06,26,02,50,19.40
2017,06,26,02,51,19.40
2017,06,26,02,52,19.30
2017,06,26,02,53,19.30
2017,06,26,02,54,19.30
2017,06,26,02,55,19.30
2017,06,26,02,56,19.20
2017,06,26,02,57,19.20
2017,06,26,02,58,19.20
2017,06,26,02,59,19.10
2017,06,26,03,00,19.10
2017,06,26,03,01,19.10
2017,06,26,03,02,19.10
2017,06,26,03,03,19.00
2017,06,26,03,04,19.00
2017,06,26,03,05,19.00
2017,06,26,03,06,19.00
2017,06,26,03,07,19.00
2017,06,26,03,08,18.90
2017,06,26,03,09,18.90
2017,06,26,03,10,18.90
2017,06,26,03,11,18.90
2017,06,26,03,12,18.80
2017,06,26,03,13,18.80
2017,06,26,03,14,18.80
2017,06,26,03,15,18.80
2017,06,26,03,16,18.80
2017,06,26,03,17,18.80
2017,06,26,03,18,18.80
2017,06,26,03,19,18.80
2017,06,26,03,20,18.80
2017,06,26,03,21,18.80
2017,06,26,03,22,18.70
2017,06,26,03,23,18.70
2017,06,26,03,24,18.70
2017,06,26,03,25,18.70
2017,06,26,03,26,18.70
2017,06,26,03,27,18.70
2017,06,26,03,28,18.70
2017,06,26,03,29,18.70
2017,06,26,03,30,18.70
2017,06,26,03,31,18.70
2017,06,26,03,32,18.70
2017,06,26,03,33,18.70
2017,06,26,03,34,18.70
2017,06,26,03,35,18.60
2017,06,26,03,36,18.60
2017,06,26,03,37,18.50
2017,06,26,03,38,18.50
2017,06,26,03,39,18.50
2017,06,26,03,40,18.40
2017,06,26,03,41,18.40
2017,06,26,03,42,18.40
2017,06,26,03,43,18.40
2017,06,26,03,44,18.40
2017,06,26,03,45,18.40
2017,06,26,03,46,18.40
2017,06,26,03,47,18.40
2017,06,26,03,48,18.30
2017,06,26,03,49,18.30
2017,06,26,03,50,18.30
2017,06,26,03,51,18.30
2017,06,26,03,52,18.30
2017,06,26,03,53,18.30
2017,06,26,03,54,18.30
2017,06,26,03,55,18.30
2017,06,26,03,56,18.30
2017,06,26,03,57,18.30
2017,06,26,03,58,18.30
2017,06,26,03,59,18.30
2017,06,26,04,00,18.30
2017,06,26,04,01,18.20
2017,06,26,04,02,18.20
2017,06,26,04,03,18.20
2017,06,26,04,04,18.20
2017,06,26,04,05,18.10
2017,06,26,04,06,18.10
2017,06,26,04,07,18.10
2017,06,26,04,08,18.00
2017,06,26,04,09,18.00
2017,06,26,04,10,18.00
2017,06,26,04,11,18.00
2017,06,26,04,12,17.90
2017,06,26,04,13,17.90
2017,06,26,04,14,17.90
2017,06,26,04,15,17.90
2017,06,26,04,16,17.90
2017,06,26,04,17,17.80
2017,06,26,04,18,17.80
2017,06,26,04,19,17.80
2017,06,26,04,20,17.80
2017,06,26,04,21,17.80
2017,06,26,04,22,17.80
2017,06,26,04,23,17.80
2017,06,26,04,24,17.70
2017,06,26,04,25,17.70
2017,06,26,04,26,17.70
2017,06,26,04,27,17.70
2017,06,26,04,28,17.70
2017,06,26,04,29,17.60
2017,06,26,04,30,17.60
2017,06,26,04,31,17.60
2017,06,26,04,32,17.60
2017,06,26,04,33,17.60
2017,06,26,04,34,17.60
2017,06,26,04,35,17.50
2017,06,26,04,36,17.50
2017,06,26,04,37,17.50
2017,06,26,04,38,17.40
2017,06,26,04,39,17.40
2017,06,26,04,40,17.40
2017,06,26,04,41,17.40
2017,06,26,04,42,17.30
2017,06,26,04,43,17.30
2017,06,26,04,44,17.30
2017,06,26,04,45,17.30
2017,06,26,04,46,17.30
2017,06,26,04,47,17.20
2017,06,26,04,48,17.20
2017,06,26,04,49,17.20
2017,06,26,04,50,17.20
2017,06,26,04,51,17.20
2017,06,26,04,52,17.20
2017,06,26,04,53,17.10
2017,06,26,04,54,17.10
2017,06,26,04,55,17.10
2017,06,26,04,56,17.10
2017,06,26,04,57,17.10
2017,06,26,04,58,17.10
2017,06,26,04,59,17.10
2017,06,26,05,00,17.00
2017,06,26,05,01,17.00
2017,06,26,05,02,17.00
2017,06,26,05,03,17.00
2017,06,26,05,04,17.00
2017,06,26,05,05,17.00
2017,06,26,05,06,17.00
2017,06,26,05,07,17.00
2017,06,26,05,08,16.90
2017,06,26,05,09,16.90
2017,06,26,05,10,16.90
2017,06,26,05,11,16.90
2017,06,26,05,12,16.90
2017,06,26,05,13,16.90
2017,06,26,05,14,16.90
2017,06,26,05,15,16.90
2017,06,26,05,16,16.90
2017,06,26,05,17,16.90
2017,06,26,05,18,16.90
2017,06,26,05,19,16.90
2017,06,26,05,20,16.90
2017,06,26,05,21,16.90
2017,06,26,05,22,16.80
2017,06,26,05,23,16.80
2017,06,26,05,24,16.80
2017,06,26,05,25,16.80
2017,06,26,05,26,16.80
2017,06,26,05,27,16.80
2017,06,26,05,28,16.80
2017,06,26,05,29,16.70
2017,06,26,05,30,16.70
2017,06,26,05,31,16.70
2017,06,26,05,32,16.70
2017,06,26,05,33,16.70
2017,06,26,05,34,16.70
2017,06,26,05,35,16.70
2017,06,26,05,36,16.70
2017,06,26,05,37,16.70
2017,06,26,05,38,16.70
2017,06,26,05,39,16.70
2017,06,26,05,40,16.70
2017,06,26,05,41,16.70
2017,06,26,05,42,16.70
2017,06,26,05,43,16.70
2017,06,26,05,44,16.70
2017,06,26,05,45,16.70
2017,06,26,05,46,16.70
2017,06,26,05,47,16.70
2017,06,26,05,48,16.70
2017,06,26,05,49,16.70
2017,06,26,05,50,16.70
2017,06,26,05,51,16.70
2017,06,26,05,52,16.70
2017,06,26,05,53,16.70
2017,06,26,05,54,16.70
2017,06,26,05,55,16.70
2017,06,26,05,56,16.70
2017,06,26,05,57,16.70
2017,06,26,05,58,16.70
2017,06,26,05,59,16.70
2017,06,26,06,00,16.70
2017,06,26,06,01,16.80
2017,06,26,06,02,16.80
2017,06,26,06,03,16.80
2017,06,26,06,04,16.80
2017,06,26,06,05,16.80
2017,06,26,06,06,16.80
2017,06,26,06,07,16.80
2017,06,26,06,08,16.80
2017,06,26,06,09,16.80
2017,06,26,06,10,16.70
2017,06,26,06,11,16.70
2017,06,26,06,12,16.80
2017,06,26,06,13,16.70
2017,06,26,06,14,16.70
2017,06,26,06,15,16.70
2017,06,26,06,16,16.70
2017,06,26,06,17,16.80
2017,06,26,06,18,16.70
2017,06,26,06,19,16.70
2017,06,26,06,20,16.70
2017,06,26,06,21,16.70
2017,06,26,06,22,16.70
2017,06,26,06,23,16.70
2017,06,26,06,24,16.70
2017,06,26,06,25,16.60
2017,06,26,06,26,16.60
2017,06,26,06,27,16.60
2017,06,26,06,28,16.60
2017,06,26,06,29,16.60
2017,06,26,06,30,16.60
2017,06,26,06,31,16.60
2017,06,26,06,32,16.50
2017,06,26,06,33,16.50
2017,06,26,06,34,16.50
2017,06,26,06,35,16.50
2017,06,26,06,36,16.50
2017,06,26,06,37,16.40
2017,06,26,06,38,16.40
2017,06,26,06,39,16.40
2017,06,26,06,40,16.40
2017,06,26,06,41,16.40
2017,06,26,06,42,16.40
2017,06,26,06,43,16.40
2017,06,26,06,44,16.40
2017,06,26,06,45,16.40
2017,06,26,06,46,16.40
2017,06,26,06,47,16.40
2017,06,26,06,48,16.40
2017,06,26,06,49,16.40
2017,06,26,06,50,16.40
2017,06,26,06,51,16.40
2017,06,26,06,52,16.40
2017,06,26,06,53,16.40
2017,06,26,06,54,16.40
2017,06,26,06,55,16.40
2017,06,26,06,56,16.40
2017,06,26,06,57,16.40
2017,06,26,06,58,16.40
2017,06,26,06,59,16.40
2017,06,26,07,00,16.40
2017,06,26,07,01,16.40
2017,06,26,07,02,16.40
2017,06,26,07,03,16.40
2017,06,26,07,04,16.40
2017,06,26,07,05,16.40
2017,06,26,07,06,16.40
2017,06,26,07,07,16.40
2017,06,26,07,08,16.40
2017,06,26,07,09,16.40
2017,06,26,07,10,16.40
2017,06,26,07,11,16.40
2017,06,26,07,12,16.40
2017,06,26,07,13,16.40
2017,06,26,07,14,16.40
2017,06,26,07,15,16.40
2017,06,26,07,16,16.40
2017,06,26,07,17,16.40
2017,06,26,07,18,16.30
2017,06,26,07,19,16.30
2017,06,26,07,20,16.30
2017,06,26,07,21,16.30
2017,06,26,07,22,16.30
2017,06,26,07,23,16.30
2017,06,26,07,24,16.30
2017,06,26,07,25,16.30
2017,06,26,07,26,16.30
2017,06,26,07,27,16.30
2017,06,26,07,28,16.30
2017,06,26,07,29,16.30
2017,06,26,07,30,16.30
2017,06,26,07,31,16.30
2017,06,26,07,32,16.30
2017,06,26,07,33,16.30
2017,06,26,07,34,16.40
2017,06,26,07,35,16.40
2017,06,26,07,36,16.40
2017,06,26,07,37,16.50
2017,06,26,07,38,16.60
2017,06,26,07,39,16.60
2017,06,26,07,40,16.60
2017,06,26,07,41,16.60
2017,06,26,07,42,16.60
2017,06,26,07,43,16.70
2017,06,26,07,44,16.70
2017,06,26,07,45,16.70
2017,06,26,07,46,16.70
2017,06,26,07,47,16.70
2017,06,26,07,48,16.70
2017,06,26,07,49,16.70
2017,06,26,07,50,16.70
2017,06,26,07,51,16.70
2017,06,26,07,52,16.80
2017,06,26,07,53,16.80
2017,06,26,07,54,16.80
2017,06,26,07,55,16.80
2017,06,26,07,56,16.80
2017,06,26,07,57,16.80
2017,06,26,07,58,16.70
2017,06,26,07,59,16.70
2017,06,26,08,00,16.70
2017,06,26,08,01,16.70
2017,06,26,08,02,16.70
2017,06,26,08,03,16.60
2017,06,26,08,04,16.60
2017,06,26,08,05,16.60
2017,06,26,08,06,16.60
2017,06,26,08,07,16.60
2017,06,26,08,08,16.60
2017,06,26,08,09,16.60
2017,06,26,08,10,16.60
2017,06,26,08,11,16.60
2017,06,26,08,12,16.60
2017,06,26,08,13,16.60
2017,06,26,08,14,16.70
2017,06,26,08,15,16.70
2017,06,26,08,16,16.70
2017,06,26,08,17,16.80
2017,06,26,08,18,16.80
2017,06,26,08,19,16.80
2017,06,26,08,20,16.90
2017,06,26,08,21,16.90
2017,06,26,08,22,17.00
2017,06,26,08,23,17.00
2017,06,26,08,24,17.10
2017,06,26,08,25,17.10
2017,06,26,08,26,17.20
2017,06,26,08,27,17.20
2017,06,26,08,28,17.20
2017,06,26,08,29,17.20
2017,06,26,08,30,17.30
2017,06,26,08,31,17.30
2017,06,26,08,32,17.30
2017,06,26,08,33,17.40
2017,06,26,08,34,17.40
2017,06,26,08,35,17.40
2017,06,26,08,36,17.50
2017,06,26,08,37,17.50
2017,06,26,08,38,17.50
2017,06,26,08,39,17.60
2017,06,26,08,40,17.60
2017,06,26,08,41,17.60
2017,06,26,08,42,17.70
2017,06,26,08,43,17.80
2017,06,26,08,44,17.80
2017,06,26,08,45,17.90
2017,06,26,08,46,18.00
2017,06,26,08,47,18.10
2017,06,26,08,48,18.30
2017,06,26,08,49,18.40
2017,06,26,08,50,18.50
2017,06,26,08,51,18.60
2017,06,26,08,52,18.70
2017,06,26,08,53,18.80
2017,06,26,08,54,18.90
2017,06,26,08,55,19.00
2017,06,26,08,56,19.10
2017,06,26,08,57,19.10
2017,06,26,08,58,19.20
2017,06,26,08,59,19.30
2017,06,26,09,00,19.40
2017,06,26,09,01,19.50
2017,06,26,09,02,19.60
2017,06,26,09,03,19.60
2017,06,26,09,04,19.70
2017,06,26,09,05,19.70
2017,06,26,09,06,19.70
2017,06,26,09,07,19.70
2017,06,26,09,08,19.60
2017,06,26,09,09,19.60
2017,06,26,09,10,19.70
2017,06,26,09,11,19.70
2017,06,26,09,12,19.70
2017,06,26,09,13,19.70
2017,06,26,09,14,19.70
2017,06,26,09,15,19.80
2017,06,26,09,16,19.80
2017,06,26,09,17,19.80
2017,06,26,09,18,19.80
2017,06,26,09,19,19.80
2017,06,26,09,20,19.80
2017,06,26,09,21,19.80
2017,06,26,09,22,19.80
2017,06,26,09,23,19.80
2017,06,26,09,24,19.70
2017,06,26,09,25,19.60
2017,06,26,09,26,19.60
2017,06,26,09,27,19.60
2017,06,26,09,28,19.60
2017,06,26,09,29,19.60
2017,06,26,09,30,19.60
2017,06,26,09,31,19.50
2017,06,26,09,32,19.40
2017,06,26,09,33,19.40
2017,06,26,09,34,19.40
2017,06,26,09,35,19.40
2017,06,26,09,36,19.30
2017,06,26,09,37,19.20
2017,06,26,09,38,19.10
2017,06,26,09,39,19.00
2017,06,26,09,40,18.90
2017,06,26,09,41,18.70
2017,06,26,09,42,18.60
2017,06,26,09,43,18.50
2017,06,26,09,44,18.50
2017,06,26,09,45,18.40
2017,06,26,09,46,18.30
2017,06,26,09,47,18.20
2017,06,26,09,48,18.10
2017,06,26,09,49,18.00
2017,06,26,09,50,17.90
2017,06,26,09,51,17.80
2017,06,26,09,52,17.70
2017,06,26,09,53,17.70
2017,06,26,09,54,17.60
2017,06,26,09,55,17.60
2017,06,26,09,56,17.60
2017,06,26,09,57,17.60
2017,06,26,09,58,17.70
2017,06,26,09,59,17.70
2017,06,26,10,00,17.70
2017,06,26,10,01,17.80
2017,06,26,10,02,17.80
2017,06,26,10,03,17.80
2017,06,26,10,04,17.80
2017,06,26,10,05,17.80
2017,06,26,10,06,17.80
2017,06,26,10,07,17.80
2017,06,26,10,08,17.70
2017,06,26,10,09,17.70
2017,06,26,10,10,17.70
2017,06,26,10,11,17.70
2017,06,26,10,12,17.70
2017,06,26,10,13,17.70
2017,06,26,10,14,17.80
2017,06,26,10,15,17.90
2017,06,26,10,16,17.90
2017,06,26,10,17,18.00
2017,06,26,10,18,18.10
2017,06,26,10,19,18.20
2017,06,26,10,20,18.30
2017,06,26,10,21,18.30
2017,06,26,10,22,18.30
2017,06,26,10,23,18.40
2017,06,26,10,24,18.40
2017,06,26,10,25,18.50
2017,06,26,10,26,18.60
2017,06,26,10,27,18.70
2017,06,26,10,28,18.70
2017,06,26,10,29,18.80
2017,06,26,10,30,18.80
2017,06,26,10,31,18.80
2017,06,26,10,32,18.80
2017,06,26,10,33,18.80
2017,06,26,10,34,18.80
2017,06,26,10,35,18.80
2017,06,26,10,36,18.80
2017,06,26,10,37,18.80
2017,06,26,10,38,18.80
2017,06,26,10,39,18.70
2017,06,26,10,40,18.70
2017,06,26,10,41,18.70
2017,06,26,10,42,18.70
2017,06,26,10,43,18.70
2017,06,26,10,44,18.70
2017,06,26,10,45,18.60
2017,06,26,10,46,18.60
2017,06,26,10,47,18.60
2017,06,26,10,48,18.60
2017,06,26,10,49,18.60
2017,06,26,10,50,18.60
2017,06,26,10,51,18.60
2017,06,26,10,52,18.60
2017,06,26,10,53,18.60
2017,06,26,10,54,18.60
2017,06,26,10,55,18.60
2017,06,26,10,56,18.60
2017,06,26,10,57,18.60
2017,06,26,10,58,18.60
2017,06,26,10,59,18.60
2017,06,26,11,00,18.60
2017,06,26,11,01,18.70
2017,06,26,11,02,18.70
2017,06,26,11,03,18.70
2017,06,26,11,04,18.70
2017,06,26,11,05,18.70
2017,06,26,11,06,18.80
2017,06,26,11,07,18.80
2017,06,26,11,08,18.80
2017,06,26,11,09,18.90
2017,06,26,11,10,18.90
2017,06,26,11,11,18.90
2017,06,26,11,12,18.90
2017,06,26,11,13,18.90
2017,06,26,11,14,19.00
2017,06,26,11,15,19.10
2017,06,26,11,16,19.20
2017,06,26,11,17,19.20
2017,06,26,11,18,19.30
2017,06,26,11,19,19.40
2017,06,26,11,20,19.40
2017,06,26,11,21,19.40
2017,06,26,11,22,19.40
2017,06,26,11,23,19.30
2017,06,26,11,24,19.30
2017,06,26,11,25,19.30
2017,06,26,11,26,19.20
2017,06,26,11,27,19.20
2017,06,26,11,28,19.20
2017,06,26,11,29,19.30
2017,06,26,11,30,19.20
2017,06,26,11,31,19.20
2017,06,26,11,32,19.20
2017,06,26,11,33,19.20
2017,06,26,11,34,19.20
2017,06,26,11,35,19.30
2017,06,26,11,36,19.30
2017,06,26,11,37,19.40
2017,06,26,11,38,19.50
2017,06,26,11,39,19.50
2017,06,26,11,40,19.60
2017,06,26,11,41,19.70
2017,06,26,11,42,19.80
2017,06,26,11,43,19.80
2017,06,26,11,44,19.90
2017,06,26,11,45,20.00
2017,06,26,11,46,20.00
2017,06,26,11,47,20.10
2017,06,26,11,48,20.10
2017,06,26,11,49,20.20
2017,06,26,11,50,20.30
2017,06,26,11,51,20.30
2017,06,26,11,52,20.30
2017,06,26,11,53,20.30
2017,06,26,11,54,20.30
2017,06,26,11,55,20.30
2017,06,26,11,56,20.30
2017,06,26,11,57,20.30
2017,06,26,11,58,20.30
2017,06,26,11,59,20.40
2017,06,26,12,00,20.30
2017,06,26,12,01,20.30
2017,06,26,12,02,20.30
2017,06,26,12,03,20.30
2017,06,26,12,04,20.40
2017,06,26,12,05,20.50
2017,06,26,12,06,20.50
2017,06,26,12,07,20.50
2017,06,26,12,08,20.50
2017,06,26,12,09,20.50
2017,06,26,12,10,20.60
2017,06,26,12,11,20.70
2017,06,26,12,12,20.80
2017,06,26,12,13,20.90
2017,06,26,12,14,21.00
2017,06,26,12,15,21.00
2017,06,26,12,16,21.00
2017,06,26,12,17,21.00
2017,06,26,12,18,21.00
2017,06,26,12,19,21.00
2017,06,26,12,20,20.90
2017,06,26,12,21,20.80
2017,06,26,12,22,20.70
2017,06,26,12,23,20.70
2017,06,26,12,24,20.60
2017,06,26,12,25,20.50
2017,06,26,12,26,20.50
2017,06,26,12,27,20.50
2017,06,26,12,28,20.50
2017,06,26,12,29,20.40
2017,06,26,12,30,20.30
2017,06,26,12,31,20.30
2017,06,26,12,32,20.30
2017,06,26,12,33,20.40
2017,06,26,12,34,20.50
2017,06,26,12,35,20.60
2017,06,26,12,36,20.60
2017,06,26,12,37,20.60
2017,06,26,12,38,20.70
2017,06,26,12,39,20.70
2017,06,26,12,40,20.90
2017,06,26,12,41,21.00
2017,06,26,12,42,21.10
2017,06,26,12,43,21.10
2017,06,26,12,44,21.10
2017,06,26,12,45,21.10
2017,06,26,12,46,21.10
2017,06,26,12,47,21.00
2017,06,26,12,48,21.00
2017,06,26,12,49,20.90
2017,06,26,12,50,20.80
2017,06,26,12,51,20.70
2017,06,26,12,52,20.70
2017,06,26,12,53,20.70
2017,06,26,12,54,20.70
2017,06,26,12,55,20.70
2017,06,26,12,56,20.70
2017,06,26,12,57,20.80
2017,06,26,12,58,20.80
2017,06,26,12,59,20.90
2017,06,26,13,00,20.90
2017,06,26,13,01,20.80
2017,06,26,13,02,20.80
2017,06,26,13,03,20.80
2017,06,26,13,04,20.90
2017,06,26,13,05,20.90
2017,06,26,13,06,20.90
2017,06,26,13,07,21.00
2017,06,26,13,08,21.00
2017,06,26,13,09,20.90
2017,06,26,13,10,20.90
2017,06,26,13,11,20.90
2017,06,26,13,12,20.90
2017,06,26,13,13,20.90
2017,06,26,13,14,20.90
2017,06,26,13,15,20.80
2017,06,26,13,16,20.90
2017,06,26,13,17,20.90
2017,06,26,13,18,20.80
2017,06,26,13,19,20.90
2017,06,26,13,20,21.00
2017,06,26,13,21,21.00
2017,06,26,13,22,21.10
2017,06,26,13,23,21.10
2017,06,26,13,24,21.10
2017,06,26,13,25,21.20
2017,06,26,13,26,21.20
2017,06,26,13,27,21.30
2017,06,26,13,28,21.40
2017,06,26,13,29,21.40
2017,06,26,13,30,21.40
2017,06,26,13,31,21.40
2017,06,26,13,32,21.40
2017,06,26,13,33,21.40
2017,06,26,13,34,21.40
2017,06,26,13,35,21.40
2017,06,26,13,36,21.40
2017,06,26,13,37,21.40
2017,06,26,13,38,21.50
2017,06,26,13,39,21.60
2017,06,26,13,40,21.60
2017,06,26,13,41,21.70
2017,06,26,13,42,21.70
2017,06,26,13,43,21.70
2017,06,26,13,44,21.70
2017,06,26,13,45,21.70
2017,06,26,13,46,21.70
2017,06,26,13,47,21.60
2017,06,26,13,48,21.60
2017,06,26,13,49,21.70
2017,06,26,13,50,21.80
2017,06,26,13,51,21.80
2017,06,26,13,52,21.80
2017,06,26,13,53,21.80
2017,06,26,13,54,21.80
2017,06,26,13,55,21.70
2017,06,26,13,56,21.70
2017,06,26,13,57,21.70
2017,06,26,13,58,21.80
2017,06,26,13,59,21.90
2017,06,26,14,00,21.90
2017,06,26,14,01,21.90
2017,06,26,14,02,21.90
2017,06,26,14,03,22.00
2017,06,26,14,04,22.10
2017,06,26,14,05,22.20
2017,06,26,14,06,22.30
2017,06,26,14,07,22.40
2017,06,26,14,08,22.40
2017,06,26,14,09,22.50
2017,06,26,14,10,22.60
2017,06,26,14,11,22.60
2017,06,26,14,12,22.60
2017,06,26,14,13,22.60
2017,06,26,14,14,22.60
2017,06,26,14,15,22.60
2017,06,26,14,16,22.60
2017,06,26,14,17,22.60
2017,06,26,14,18,22.70
2017,06,26,14,19,22.80
2017,06,26,14,20,22.90
2017,06,26,14,21,23.10
2017,06,26,14,22,23.20
2017,06,26,14,23,23.20
2017,06,26,14,24,23.20
2017,06,26,14,25,23.10
2017,06,26,14,26,23.10
2017,06,26,14,27,23.10
2017,06,26,14,28,23.10
2017,06,26,14,29,23.10
2017,06,26,14,30,23.20
2017,06,26,14,31,23.30
2017,06,26,14,32,23.40
2017,06,26,14,33,23.50
2017,06,26,14,34,23.60
2017,06,26,14,35,23.70
2017,06,26,14,36,23.70
2017,06,26,14,37,23.70
2017,06,26,14,38,23.60
2017,06,26,14,39,23.60
2017,06,26,14,40,23.70
2017,06,26,14,41,23.70
2017,06,26,14,42,23.60
2017,06,26,14,43,23.60
2017,06,26,14,44,23.60
2017,06,26,14,45,23.50
2017,06,26,14,46,23.50
2017,06,26,14,47,23.40
2017,06,26,14,48,23.20
2017,06,26,14,49,23.20
2017,06,26,14,50,23.10
2017,06,26,14,51,23.10
2017,06,26,14,52,23.00
2017,06,26,14,53,22.90
2017,06,26,14,54,22.80
2017,06,26,14,55,22.80
2017,06,26,14,56,22.80
2017,06,26,14,57,22.80
2017,06,26,14,58,22.80
2017,06,26,14,59,22.90
2017,06,26,15,00,23.00
2017,06,26,15,01,23.00
2017,06,26,15,02,22.90
2017,06,26,15,03,22.90
2017,06,26,15,04,22.90
2017,06,26,15,05,23.00
2017,06,26,15,06,23.00
2017,06,26,15,07,22.90
2017,06,26,15,08,22.90
2017,06,26,15,09,22.90
2017,06,26,15,10,22.90
2017,06,26,15,11,22.90
2017,06,26,15,12,22.90
2017,06,26,15,13,22.90
2017,06,26,15,14,23.00
2017,06,26,15,15,23.00
2017,06,26,15,16,23.00
2017,06,26,15,17,23.00
2017,06,26,15,18,23.00
2017,06,26,15,19,23.00
2017,06,26,15,20,23.00
2017,06,26,15,21,23.00
2017,06,26,15,22,23.10
2017,06,26,15,23,23.10
2017,06,26,15,24,23.20
2017,06,26,15,25,23.30
2017,06,26,15,26,23.30
2017,06,26,15,27,23.30
2017,06,26,15,28,23.30
2017,06,26,15,29,23.30
2017,06,26,15,30,23.30
2017,06,26,15,31,23.30
2017,06,26,15,32,23.30
2017,06,26,15,33,23.20
2017,06,26,15,34,23.30
2017,06,26,15,35,23.30
2017,06,26,15,36,23.30
2017,06,26,15,37,23.30
2017,06,26,15,38,23.20
2017,06,26,15,39,23.10
2017,06,26,15,40,23.10
2017,06,26,15,41,23.10
2017,06,26,15,42,23.10
2017,06,26,15,43,23.10
2017,06,26,15,44,23.10
2017,06,26,15,45,23.20
2017,06,26,15,46,23.20
2017,06,26,15,47,23.30
2017,06,26,15,48,23.30
2017,06,26,15,49,23.40
2017,06,26,15,50,23.40
2017,06,26,15,51,23.50
2017,06,26,15,52,23.50
2017,06,26,15,53,23.60
2017,06,26,15,54,23.60
2017,06,26,15,55,23.50
2017,06,26,15,56,23.40
2017,06,26,15,57,23.20
2017,06,26,15,58,23.20
2017,06,26,15,59,23.20
2017,06,26,16,00,23.20
2017,06,26,16,01,23.30
2017,06,26,16,02,23.30
2017,06,26,16,03,23.40
2017,06,26,16,04,23.50
2017,06,26,16,05,23.50
2017,06,26,16,06,23.50
2017,06,26,16,07,23.40
2017,06,26,16,08,23.40
2017,06,26,16,09,23.40
2017,06,26,16,10,23.40
2017,06,26,16,11,23.50
2017,06,26,16,12,23.50
2017,06,26,16,13,23.50
2017,06,26,16,14,23.50
2017,06,26,16,15,23.50
2017,06,26,16,16,23.60
2017,06,26,16,17,23.60
2017,06,26,16,18,23.60
2017,06,26,16,19,23.60
2017,06,26,16,20,23.50
2017,06,26,16,21,23.50
2017,06,26,16,22,23.40
2017,06,26,16,23,23.50
2017,06,26,16,24,23.50
2017,06,26,16,25,23.50
2017,06,26,16,26,23.60
2017,06,26,16,27,23.70
2017,06,26,16,28,23.70
2017,06,26,16,29,23.80
2017,06,26,16,30,23.80
2017,06,26,16,31,23.80
2017,06,26,16,32,23.80
2017,06,26,16,33,23.80
2017,06,26,16,34,23.80
2017,06,26,16,35,23.90
2017,06,26,16,36,23.90
2017,06,26,16,37,23.90
2017,06,26,16,38,23.80
2017,06,26,16,39,23.70
2017,06,26,16,40,23.60
2017,06,26,16,41,23.50
2017,06,26,16,42,23.50
2017,06,26,16,43,23.50
2017,06,26,16,44,23.50
2017,06,26,16,45,23.50
2017,06,26,16,46,23.50
2017,06,26,16,47,23.50
2017,06,26,16,48,23.50
2017,06,26,16,49,23.50
2017,06,26,16,50,23.60
2017,06,26,16,51,23.60
2017,06,26,16,52,23.60
2017,06,26,16,53,23.70
2017,06,26,16,54,23.70
2017,06,26,16,55,23.70
2017,06,26,16,56,23.60
2017,06,26,16,57,23.60
2017,06,26,16,58,23.70
2017,06,26,16,59,23.70
2017,06,26,17,00,23.70
2017,06,26,17,01,23.60
2017,06,26,17,02,23.50
2017,06,26,17,03,23.50
2017,06,26,17,04,23.40
2017,06,26,17,05,23.40
2017,06,26,17,06,23.40
2017,06,26,17,07,23.40
2017,06,26,17,08,23.40
2017,06,26,17,09,23.40
2017,06,26,17,10,23.40
2017,06,26,17,11,23.40
2017,06,26,17,12,23.40
2017,06,26,17,13,23.40
2017,06,26,17,14,23.50
2017,06,26,17,15,23.50
2017,06,26,17,16,23.60
2017,06,26,17,17,23.70
2017,06,26,17,18,23.70
2017,06,26,17,19,23.70